KC0AFB Weather Reports


Display with metric or nautical units.
time (UTC)temp
F
wind
direction
speed
MPH
gust
MPH
rain 1hr
in
rain 24hr
in
rain mn
in
humidity
%
barometer
mb
20260504035722 61 255 5.0 6.0 0.00 0.00 0.00 45 998.8
20260504035220 60 231 6.0 7.0 0.00 0.00 0.00 46 998.8
20260504034717 60 223 3.0 5.0 0.00 0.00 0.00 47 998.7
20260504034214 60 217 4.0 5.0 0.00 0.00 0.00 47 998.7
20260504033712 60 222 5.0 6.0 0.00 0.00 0.00 47 999.1
20260504033209 60 237 5.0 7.0 0.00 0.00 0.00 47 998.9
20260504032706 60 227 4.0 6.0 0.00 0.00 0.00 47 998.9
20260504032203 60 193 3.0 5.0 0.00 0.00 0.00 47 999.1
20260504031659 60 236 5.0 6.0 0.00 0.00 0.00 47 999.3
20260504031156 60 286 4.0 5.0 0.00 0.00 0.00 47 999.0
20260504030652 61 240 4.0 6.0 0.00 0.00 0.00 47 999.2
20260504030150 61 241 4.0 5.0 0.00 0.00 0.00 46 999.3
20260504025646 61 199 4.0 5.0 0.00 0.00 0.00 46 999.3
20260504025142 62 226 5.0 6.0 0.00 0.00 0.00 45 999.2
20260504024635 62 237 5.0 6.0 0.00 0.00 0.00 45 999.6
20260504024131 63 244 4.0 6.0 0.00 0.00 0.00 44 999.6
20260504023627 64 247 7.0 8.0 0.00 0.00 0.00 43 999.6
20260504023124 64 239 5.0 6.0 0.00 0.00 0.00 42 999.7
20260504022620 64 224 4.0 5.0 0.00 0.00 0.00 42 999.7
20260504022116 65 239 7.0 8.0 0.00 0.00 0.00 41 999.8
20260504021614 65 241 8.0 10.0 0.00 0.00 0.00 41 999.7
20260504021110 66 280 7.0 9.0 0.00 0.00 0.00 40 1000.0
20260504020608 66 238 4.0 5.0 0.00 0.00 0.00 40 1000.1
20260504020104 66 237 6.0 7.0 0.00 0.00 0.00 39 1000.0
20260504015600 66 238 7.0 9.0 0.00 0.00 0.00 39 1000.3
20260504015056 67 244 6.0 7.0 0.00 0.00 0.00 39 1000.1
20260504014552 68 184 9.0 11.0 0.00 0.00 0.00 37 1000.1
20260504014050 68 214 5.0 7.0 0.00 0.00 0.00 37 1000.0
20260504013547 68 236 7.0 8.0 0.00 0.00 0.00 37 1000.3
20260504013044 69 234 8.0 10.0 0.00 0.00 0.00 36 1000.3
20260504012542 69 215 11.0 13.0 0.00 0.00 0.00 35 1000.2
20260504012039 69 265 7.0 10.0 0.00 0.00 0.00 36 1000.3
20260504011536 69 235 7.0 9.0 0.00 0.00 0.00 36 1000.1
20260504011032 69 266 6.0 8.0 0.00 0.00 0.00 36 1000.7
20260504010527 69 217 5.0 7.0 0.00 0.00 0.00 37 1000.7
20260504010018 69 275 5.0 7.0 0.00 0.00 0.00 37 1000.8
20260504005515 69 254 3.0 3.0 0.00 0.00 0.00 37 1001.0
20260504005013 69 268 5.0 6.0 0.00 0.00 0.00 37 1000.9
20260504004510 70 253 7.0 8.0 0.00 0.00 0.00 35 1000.9
20260504004007 71 279 11.0 14.0 0.00 0.00 0.00 34 1001.0
20260504003503 71 265 7.0 9.0 0.00 0.00 0.00 34 1001.1
20260504003000 72 209 7.0 11.0 0.00 0.00 0.00 33 1001.3
20260504002457 72 264 8.0 10.0 0.00 0.00 0.00 32 1001.7
20260504001954 72 258 7.0 9.0 0.00 0.00 0.00 32 1001.6
20260504001452 73 248 12.0 15.0 0.00 0.00 0.00 31 1001.9
20260504000948 73 261 8.0 10.0 0.00 0.00 0.00 33 1001.9
20260504000445 73 253 6.0 7.0 0.00 0.00 0.00 33 1001.7
20260503235943 72 267 7.0 9.0 0.00 0.00 0.00 32 1002.1
20260503235440 71 264 5.0 7.0 0.00 0.00 0.00 33 1002.2
20260503234937 71 248 5.0 6.0 0.00 0.00 0.00 34 1002.2
20260503234435 71 266 8.0 13.0 0.00 0.00 0.00 33 1002.3
20260503233933 72 235 7.0 9.0 0.00 0.00 0.00 32 1002.5
20260503233429 72 212 9.0 10.0 0.00 0.00 0.00 31 1002.7
20260503232926 72 278 11.0 14.0 0.00 0.00 0.00 32 1002.6
20260503232422 71 269 8.0 9.0 0.00 0.00 0.00 31 1002.7
20260503231920 71 248 10.0 13.0 0.00 0.00 0.00 33 1002.8
20260503231418 71 276 6.0 9.0 0.00 0.00 0.00 33 1003.0
20260503230914 71 284 9.0 11.0 0.00 0.00 0.00 32 1002.8
20260503230410 72 250 9.0 11.0 0.00 0.00 0.00 31 1003.1
20260503225908 72 283 11.0 14.0 0.00 0.00 0.00 31 1003.0
20260503225404 73 255 12.0 15.0 0.00 0.00 0.00 30 1002.9
20260503224900 74 254 8.0 11.0 0.00 0.00 0.00 32 1003.1
20260503224357 74 254 10.0 11.0 0.00 0.00 0.00 29 1003.2
20260503223855 74 281 11.0 13.0 0.00 0.00 0.00 29 1003.3
20260503223353 73 288 7.0 8.0 0.00 0.00 0.00 31 1003.4
20260503222848 75 290 13.0 16.0 0.00 0.00 0.00 28 1003.5
20260503222347 75 219 8.0 10.0 0.00 0.00 0.00 29 1003.5
20260503221845 75 237 11.0 20.0 0.00 0.00 0.00 29 1003.8
20260503221343 75 239 10.0 14.0 0.00 0.00 0.00 30 1003.8
20260503220838 73 291 12.0 14.0 0.00 0.00 0.00 30 1003.8
20260503220336 74 252 10.0 13.0 0.00 0.00 0.00 30 1003.9
20260503215833 73 242 14.0 17.0 0.00 0.00 0.00 29 1003.9
20260503215330 75 275 9.0 11.0 0.00 0.00 0.00 32 1003.8
20260503214827 75 217 15.0 21.0 0.00 0.00 0.00 29 1004.1
20260503214325 75 234 11.0 14.0 0.00 0.00 0.00 29 1004.2
20260503213822 74 227 11.0 16.0 0.00 0.00 0.00 32 1004.2
20260503213319 75 295 11.0 15.0 0.00 0.00 0.00 31 1004.5
20260503212816 74 240 13.0 16.0 0.00 0.00 0.00 30 1004.4
20260503212314 73 250 10.0 13.0 0.00 0.00 0.00 31 1004.6
20260503211811 73 254 9.0 13.0 0.00 0.00 0.00 32 1004.8
20260503211308 72 274 11.0 13.0 0.00 0.00 0.00 31 1004.9
20260503210808 73 212 12.0 15.0 0.00 0.00 0.00 31 1005.1
20260503210305 74 280 9.0 13.0 0.00 0.00 0.00 32 1005.3
20260503205800 73 245 11.0 13.0 0.00 0.00 0.00 31 1005.5
20260503205257 73 205 11.0 15.0 0.00 0.00 0.00 32 1005.7
20260503204754 73 221 9.0 10.0 0.00 0.00 0.00 32 1005.9
20260503204251 73 276 11.0 13.0 0.00 0.00 0.00 32 1005.9
20260503203749 73 286 13.0 16.0 0.00 0.00 0.00 32 1006.1
20260503203246 73 250 11.0 13.0 0.00 0.00 0.00 31 1006.2
20260503202743 73 297 10.0 15.0 0.00 0.00 0.00 31 1006.2
20260503202241 72 280 11.0 16.0 0.00 0.00 0.00 32 1006.5
20260503201738 73 250 10.0 13.0 0.00 0.00 0.00 31 1006.5
20260503201236 73 270 11.0 16.0 0.00 0.00 0.00 31 1006.5
20260503200732 73 273 15.0 20.0 0.00 0.00 0.00 29 1006.7
20260503200228 72 282 15.0 17.0 0.00 0.00 0.00 31 1006.7
20260503195725 73 280 10.0 13.0 0.00 0.00 0.00 32 1006.9
20260503195222 72 299 7.0 8.0 0.00 0.00 0.00 32 1007.0
20260503194720 72 287 15.0 21.0 0.00 0.00 0.00 31 1007.2
20260503194215 72 285 9.0 10.0 0.00 0.00 0.00 32 1007.1
20260503193712 72 284 11.0 15.0 0.00 0.00 0.00 33 1007.5
20260503193208 71 229 12.0 16.0 0.00 0.00 0.00 32 1007.2
20260503192704 71 211 12.0 14.0 0.00 0.00 0.00 32 1007.7
20260503192159 72 211 9.0 11.0 0.00 0.00 0.00 34 1007.8
20260503191655 71 237 12.0 15.0 0.00 0.00 0.00 31 1007.7
20260503191153 71 235 9.0 11.0 0.00 0.00 0.00 33 1007.9
20260503190650 70 228 14.0 17.0 0.00 0.00 0.00 33 1008.2
20260503190147 71 272 15.0 18.0 0.00 0.00 0.00 31 1008.4
20260503185643 70 269 8.0 9.0 0.00 0.00 0.00 34 1008.3
20260503185139 71 268 7.0 8.0 0.00 0.00 0.00 35 1008.5
20260503184634 71 221 11.0 13.0 0.00 0.00 0.00 34 1008.6
20260503184131 70 303 8.0 10.0 0.00 0.00 0.00 34 1008.6
20260503183627 70 270 11.0 15.0 0.00 0.00 0.00 34 1008.9
20260503183125 69 297 9.0 14.0 0.00 0.00 0.00 35 1009.3
20260503182623 70 293 8.0 10.0 0.00 0.00 0.00 37 1009.4
20260503182121 69 284 7.0 8.0 0.00 0.00 0.00 34 1009.3
20260503181617 69 242 14.0 16.0 0.00 0.00 0.00 35 1009.7
20260503181114 68 216 4.0 6.0 0.00 0.00 0.00 36 1009.7
20260503180611 68 271 5.0 7.0 0.00 0.00 0.00 37 1010.0
20260503180109 68 241 9.0 11.0 0.00 0.00 0.00 36 1009.9
20260503175605 68 226 9.0 10.0 0.00 0.00 0.00 36 1010.1
20260503175103 68 244 8.0 10.0 0.00 0.00 0.00 37 1010.2
20260503174559 67 271 7.0 8.0 0.00 0.00 0.00 37 1010.3
20260503174056 68 304 9.0 13.0 0.00 0.00 0.00 36 1010.6
20260503173551 67 224 12.0 16.0 0.00 0.00 0.00 37 1010.6
20260503173048 67 226 12.0 17.0 0.00 0.00 0.00 36 1010.7
20260503172545 68 273 9.0 10.0 0.00 0.00 0.00 36 1010.8
20260503172042 67 277 8.0 11.0 0.00 0.00 0.00 37 1010.9
20260503171539 66 254 7.0 8.0 0.00 0.00 0.00 38 1011.1
20260503171036 66 253 6.0 7.0 0.00 0.00 0.00 38 1011.3
20260503170532 66 245 9.0 10.0 0.00 0.00 0.00 38 1011.3
20260503150925 56 209 4.0 5.0 0.00 0.00 0.00 50 1012.9
20260503150421 55 221 7.0 8.0 0.00 0.00 0.00 52 1012.9
20260503131314 43 225 1.0 2.0 0.00 0.00 0.00 65 1014.0
20260503130812 43 171 1.0 1.0 0.00 0.00 0.00 65 1013.9
20260503130309 42 144 1.0 1.0 0.00 0.00 0.00 65 1013.9
20260503110703 36 315 1.0 1.0 0.00 0.00 0.00 72 1014.1
20260503110200 36 316 0.0 0.0 0.00 0.00 0.00 72 1013.7
20260503100121 36 175 0.0 0.0 0.00 0.00 0.00 72 1014.1
20260503081458 40 243 0.0 0.0 0.00 0.00 0.00 67 1013.8
20260503080955 41 240 1.0 1.0 0.00 0.00 0.00 65 1013.9
20260503080452 42 289 1.0 1.0 0.00 0.00 0.00 63 1013.7
20260503072928 43 287 3.0 3.0 0.00 0.00 0.00 61 1013.8
20260503072425 44 281 2.0 2.0 0.00 0.00 0.00 62 1013.7
20260503071922 44 292 2.0 2.0 0.00 0.00 0.00 61 1014.0
20260503071419 44 268 2.0 2.0 0.00 0.00 0.00 61 1014.0
20260503070915 44 307 2.0 2.0 0.00 0.00 0.00 62 1013.9
20260503070413 44 281 2.0 2.0 0.00 0.00 0.00 62 1013.9
20260503060339 48 13 5.0 6.0 0.00 0.00 0.00 61 1013.3
20260503054826 49 345 5.0 7.0 0.00 0.00 0.00 61 1013.6
20260503054322 50 4 6.0 7.0 0.00 0.00 0.00 61 1013.7
20260503053820 50 39 4.0 5.0 0.00 0.00 0.00 61 1013.5
20260503053318 50 24 3.0 3.0 0.00 0.00 0.00 61 1013.4
20260503052814 50 5 4.0 6.0 0.00 0.00 0.00 62 1013.5
20260503052311 50 23 5.0 5.0 0.00 0.00 0.00 62 1013.3
20260503051807 50 20 4.0 5.0 0.00 0.00 0.00 62 1013.5
20260503051304 50 31 5.0 7.0 0.00 0.00 0.00 63 1013.3
20260503050801 51 355 3.0 3.0 0.00 0.00 0.00 63 1013.3
20260503050257 51 8 3.0 5.0 0.00 0.00 0.00 62 1013.3
20260503045755 52 337 3.0 5.0 0.00 0.00 0.00 62 1013.3
20260503045253 51 17 5.0 7.0 0.00 0.00 0.00 62 1013.3
20260503044748 51 22 2.0 2.0 0.00 0.00 0.00 63 1013.1
20260503044245 52 44 4.0 5.0 0.00 0.00 0.00 62 1013.2
20260503043743 52 26 4.0 5.0 0.00 0.00 0.00 61 1013.0
20260503043240 53 334 3.0 3.0 0.00 0.00 0.00 61 1013.0
20260503042735 53 27 3.0 3.0 0.00 0.00 0.00 60 1012.9
20260503042232 53 345 4.0 6.0 0.00 0.00 0.00 60 1013.0
20260503041728 53 26 2.0 2.0 0.00 0.00 0.00 61 1013.0
20260503041226 53 51 1.0 2.0 0.00 0.00 0.00 61 1012.6
20260503040723 54 50 2.0 2.0 0.00 0.00 0.00 60 1012.9
20260503040220 54 12 3.0 3.0 0.00 0.00 0.00 60 1012.7